Погода в Фокино

Россия / Брянская область     53°27′19″N   34°24′57″E
темп.,
°C
ветер,
м/с
пор.,
м/с
влажн.,
%
обл.,
%
осадки,
мм/ч
давл.,
гПа
погр.,
м
9 марта, вт
вт900:00−9сз269656 0.0 1012170
03:00−9ссз379373 0.2 1014345
06:00−11ссз369595 0.1 1016262
09:00−11ссз369096 0.1 1018338
12:00−8ссз357594 0.0 1019914
15:00−6ссз356897 0.1 10191202
18:00−8сз3779100 0.1 1020559
21:00−12сз239280 0.1 102368
10 марта, ср
ср1000:00−13сз229516 0.0 102426
03:00−14зсз129614 0.0 102521
06:00−13з119687 0.0 102624
09:00−11юз239294 0.3 1026230
12:00−8зюз3690100 0.9 1025548
15:00−5з3590100 1.9 1025538
18:00−9всв5895100 1.4 1025368
21:00−12всв4893100 2.2 1028426
11 марта, чт
чт1100:00−16в388987 0.1 1030301
03:00−19в379244 0.1 1031213
06:00−21в36920 0.0 1032168
09:00−20вюв35850 0.0 1033237
12:00−14вюв35740 0.0 1033409
15:00−11юв35660 0.0 1032547
18:00−13юв36810 0.0 1031238
21:00−19юв37910 0.0 1032149
12 марта, пт
пт1200:00−19юв37900 0.0 1032177
03:00−19ююв39930 0.0 1031224
06:00−17ююв49850 0.0 1029254
09:00−12ююв5108135 0.0 1027340
12:00−6ююв61176100 0.0 1025604
15:00−5ююв71276100 0.0 1023883
18:00−6ююв71477100 0.0 1021975
21:00−7ююв71685100 0.1 1020974
13 марта, сб
сб1300:00−6ю71592100 0.9 10181041
03:00−6ю71493100 2.9 10161016
06:00−4ю61494100 1.6 1015756
09:00−3ююз61295100 3.0 1016556
12:000ююз4896100 0.5 1016415
15:000ююз4898100 0.9 1016388
18:00+1ююз3898100 0.6 1016432
21:000ююз4998100 0.7 1016545